Regional Weather Roundup
Issued by NWS

Home | Current Version | Previous Version | Graphics & Text | Print | Product List | Glossary On
Versions: 1 2 3 4 5 6 7 8 9 10 11 12 13 14 15 16 17 18 19 20 21 22 23 24 25 26 27 28 29 30 31 32 33 34 35 36 37 38 39 40 41 42 43 44 45 46 47 48 49 50
000
ASUS43 KLOT 292008
RWRIL

ILLINOIS REGIONAL WEATHER ROUNDUP
NATIONAL WEATHER SERVICE CHICAGO/ROMEOVILLE IL
300 PM CDT MON JUN 29 2015

NOTE: "FAIR" INDICATES FEW OR NO CLOUDS BELOW 12,000 FEET WITH NO
SIGNIFICANT WEATHER AND/OR OBSTRUCTIONS TO VISIBILITY.

* THESE STATIONS ARE NOT UNDER NWS QUALITY CONTROL. THEY ALSO MAY NOT
  REPORT WEATHER SUCH AS PRECIPITATION OR FOG.

ILZ001-002-007-009-015-016-024-292100-
NORTHWEST ILLINOIS

CITY           SKY/WX    TMP DP  RH WIND       PRES   REMARKS
MOLINE         SUNNY     77  64  64 W7        29.83F
STERLING*      PTSUNNY   79  66  65 W15       29.81F HX  81
SAVANNA*       MOSUNNY   79  62  54 NW8       29.81F HX  80
$$

ILZ003-004-008-010-011-017-018-292100-
NORTH CENTRAL ILLINOIS

CITY           SKY/WX    TMP DP  RH WIND       PRES   REMARKS
ROCKFORD       CLOUDY    72  62  71 NW3       29.82S
FREEPORT*      MOSUNNY   77  62  59 NW9       29.82S
ROCHELLE*      CLOUDY    74  64  69 W10       29.81F
DE KALB*       MOSUNNY   66  63  90 E3        29.81F
PERU*          PTSUNNY   75  64  67 W9G17     29.81F
$$

ILZ005-006-012>014-019>023-292100-
NORTHEAST ILLINOIS

CITY           SKY/WX    TMP DP  RH WIND       PRES   REMARKS
CHICAGO-OHARE  CLOUDY    73  61  65 NE8       29.79F
CHICAGO-MIDWAY PTSUNNY   73  63  70 E3        29.80S
AURORA         LGT RAIN  71  63  75 NE8       29.81S
LANSING*       LGT RAIN  69  63  81 SE3       29.81F
JOLIET*        MOSUNNY   74  66  76 CALM      29.80F
WAUKEGAN       PTSUNNY   68  63  84 E8        29.80F
DUPAGE AIRPORT CLOUDY    72  65  78 NE8       29.80S
KANKAKEE*      CLOUDY    73  66  81 E5        29.81S
WHEELING       PTSUNNY   71  62  73 E7        29.81S
MORRIS*        CLOUDY    73  64  73 N3        29.78S
ROMEOVILLE*    CLOUDY    69  64  85 SE5       29.80F
NORTHERLY ISL    N/A     67  63  87 E5          N/A
$$

LMZ740>746-292100-
SOUTHERN LAKE MICHIGAN

STATION/POSITION SKY/WX   TEMP    WIND        PRES    VSBY  WAVE
                          AIR SEA DIR/SP/G                  HT/PER
                          (F)     (DEG/KT/KT) (MB)    (MI)  (FT/S)
HARRISON CRIB              64     110/  6/  8   N/A
BURNHAM HARBOR             68     110/  3/  7   N/A
CALUMET HARBOR             67      50/  5/  6   N/A
BURNS HARBOR               69     100/  7/  8 1010.5S
MICHIGAN CITY              68     120/  5/  7   N/A
MICHIGAN CITY 6N           66 66   40/  4/  6   N/A           0
ST. JOSEPH                 67 64                N/A           0
$$

ILZ025>027-034>036-040-047-049-050-058-095>099-292100-
WEST-CENTRAL ILLINOIS

CITY           SKY/WX    TMP DP  RH WIND       PRES   REMARKS
QUINCY         MOSUNNY   81  66  60 NW6       29.86F HX  83
GALESBURG*     PTSUNNY   77  64  65 NW9       29.86
MACOMB*        PTSUNNY   77  65  66 W6        29.88F
JACKSONVILLE*  PTSUNNY   79  67  66 W5        29.86F HX  81
PITTSFIELD*    MOSUNNY   80  65  59 W8        29.88F HX  82
$$

ILZ028>032-037-038-041>044-048-051>054-059>061-292100-
CENTRAL ILLINOIS

CITY           SKY/WX    TMP DP  RH WIND       PRES   REMARKS
PONTIAC        PTSUNNY   75  67  77 NW5       29.81F
BLOOMINGTON    PTSUNNY   78  65  64 W16       29.83F HX  80
DECATUR        MOSUNNY   79  64  60 W13       29.83F HX  81
PEORIA         PTSUNNY   79  63  57 W9        29.84F HX  80
LACON*         PTSUNNY   78  64  61 W8        29.81F
LINCOLN*       MOSUNNY   80  64  59 W7G17     29.83F HX  81
SPRINGFIELD    MOSUNNY   80  65  59 NW10      29.85F HX  82
TAYLORVILLE    PTSUNNY   77  64  65 NW9       29.85S
$$

ILZ033-039-045-046-055>057-062-063-292100-
EAST-CENTRAL ILLINOIS

CITY           SKY/WX    TMP DP  RH WIND       PRES   REMARKS
CHAMPAIGN      MOSUNNY   78  65  63 W9G20     29.81F HX  80
DANVILLE*      RAIN      74  66  77 NW3       29.78F
RANTOUL*       MOSUNNY   79  67  66 NW8       29.80F HX  81
MATTOON        CLOUDY    77  64  64 NW12      29.82F
PARIS*         PTSUNNY   77  66  68 W10       29.81F
$$

ILZ079-100>102-292100-
SOUTHWEST ILLINOIS

CITY           SKY/WX    TMP DP  RH WIND       PRES   REMARKS
ALTON          MOSUNNY   79  72  78 NW9       29.88S HX  82
BELLEVILLE     SUNNY     81  68  65 NW6       29.86S HX  83
CAHOKIA*       MOSUNNY   84  63  49 NW15G22   29.86F HX  85
SPARTA*        MOSUNNY   82  65  56 NW6       29.88S HX  84
$$

ILZ064>066-069>071-074>076-080>082-084>086-088>090-092>094-292100-
SOUTH-CENTRAL ILLINOIS

CITY           SKY/WX    TMP DP  RH WIND       PRES   REMARKS
CARBONDALE     MOSUNNY   83  65  54 N8        29.86S HX  85
CAIRO*         SUNNY     88  65  45 W10       29.85S HX  89
EFFINGHAM*     PTSUNNY   80  62  55 W12       29.86S HX  81
MT. VERNON     MOSUNNY   81  64  57 W6        29.87S HX  82
CENTRALIA*     PTSUNNY   79  64  60 W9        29.87S HX  80
SALEM*         PTSUNNY   79  64  60 NW9       29.87S HX  80
METROPOLIS*    MOSUNNY   87  69  55 NW8       29.86S HX  91
$$

ILZ067-068-072-073-078-083-087-091-292100-
SOUTHEAST ILLINOIS

CITY           SKY/WX    TMP DP  RH WIND       PRES   REMARKS
LAWRENCEVILLE    N/A     78  65  63 W12       29.83F HX  80
FLORA*         SUNNY     78  63  60 W9        29.86S
FAIRFIELD*     MOSUNNY   79  65  62 NW6       29.84F HX  80
HARRISBURG*    SUNNY     83  66  55 W12G18    29.86F HX  85
ROBINSON*      PTSUNNY   77  66  69 W10       29.84S
CARMI*         MOSUNNY   81  62  53 NW10G17   29.84S HX  82
$$

ABBREVIATIONS USED IN REMARKS
   TC - TEMPERATURE IN CELSIUS
  WCI - WIND CHILL INDEX
   HX - HEAT INDEX
  VSB - VISIBILITY
$$



USA.gov is the U.S. government's official web portal to all federal, state and local government web resources and services.